Location: Newark
(11.2914°S, 14.4718°E)
Time: 21:27:13
(UTC+00:00)

Tiros 1 despin weight - Pass Details

Date: 18 September 2019
Orbit: 593 x 643 km, 48.2° (Epoch: 20 October)

Event Time Altitude Azimuth Distance (km) Brightness Sun altitude
Rises 20:25:46 0° 349° (N) 2,817 - -51.5°
Reaches altitude 10° 20:28:34 10° 7° (N) 1,928 - -52.1°
Maximum altitude 20:31:43 19° 53° (NE) 1,445 - -52.9°
Drops below altitude 10° 20:34:54 10° 98° (E) 1,958 - -53.7°
Sets 20:37:46 0° 116° (ESE) 2,878 - -54.3°
